TimeCST,TemperatureF,Dew PointF,Humidity,Sea Level PressureIn,VisibilityMPH,Wind Direction,Wind SpeedMPH,Gust SpeedMPH,PrecipitationIn,Events,Conditions,WindDirDegrees,DateUTC
12:53 AM,57.0,43.0,59,29.84,10.0,SSE,13.8,-,N/A,,Clear,150,2012-11-09 06:53:00
1:53 AM,55.9,42.1,60,29.83,10.0,SSE,12.7,-,N/A,,Clear,150,2012-11-09 07:53:00
2:53 AM,54.0,42.1,64,29.82,10.0,SE,11.5,-,N/A,,Clear,140,2012-11-09 08:53:00
3:53 AM,54.0,43.0,66,29.81,10.0,SSE,12.7,-,N/A,,Clear,150,2012-11-09 09:53:00
4:53 AM,52.0,43.0,71,29.83,10.0,ESE,8.1,-,N/A,,Clear,120,2012-11-09 10:53:00
5:53 AM,50.0,43.0,77,29.83,10.0,ESE,9.2,-,N/A,,Clear,120,2012-11-09 11:53:00
6:53 AM,46.9,42.1,83,29.83,10.0,ESE,6.9,-,N/A,,Clear,120,2012-11-09 12:53:00
7:53 AM,50.0,44.1,80,29.83,10.0,SE,8.1,-,N/A,,Clear,130,2012-11-09 13:53:00
8:53 AM,55.9,48.0,75,29.83,10.0,SSE,10.4,-,N/A,,Clear,150,2012-11-09 14:53:00
9:53 AM,62.1,51.1,67,29.81,10.0,South,15.0,-,N/A,,Clear,170,2012-11-09 15:53:00
10:53 AM,69.1,54.0,58,29.81,10.0,South,19.6,-,N/A,,Clear,190,2012-11-09 16:53:00
11:53 AM,70.0,55.0,59,29.78,10.0,South,13.8,-,N/A,,Clear,180,2012-11-09 17:53:00
12:53 PM,73.9,55.9,53,29.75,10.0,South,16.1,28.8,N/A,,Clear,180,2012-11-09 18:53:00
1:53 PM,77.0,57.0,50,29.72,10.0,South,19.6,25.3,N/A,,Clear,170,2012-11-09 19:53:00
2:53 PM,75.9,55.9,50,29.71,10.0,South,18.4,27.6,N/A,,Clear,170,2012-11-09 20:53:00
3:53 PM,75.9,57.9,54,29.70,10.0,SSE,15.0,-,N/A,,Clear,150,2012-11-09 21:53:00
4:53 PM,73.0,57.0,57,29.70,10.0,SSE,16.1,23.0,N/A,,Clear,160,2012-11-09 22:53:00
5:53 PM,70.0,57.9,65,29.73,10.0,SSE,13.8,21.9,N/A,,Clear,160,2012-11-09 23:53:00
6:53 PM,68.0,57.9,70,29.73,10.0,South,17.3,-,N/A,,Clear,170,2012-11-10 00:53:00
7:53 PM,66.9,57.9,73,29.73,10.0,South,17.3,-,N/A,,Clear,170,2012-11-10 01:53:00
8:53 PM,66.9,57.9,73,29.73,10.0,South,15.0,25.3,N/A,,Clear,170,2012-11-10 02:53:00
9:53 PM,68.0,57.9,70,29.73,10.0,South,15.0,24.2,N/A,,Clear,180,2012-11-10 03:53:00
10:53 PM,66.9,57.9,73,29.73,10.0,South,15.0,-,N/A,,Clear,180,2012-11-10 04:53:00
11:53 PM,66.0,57.0,73,29.73,10.0,South,16.1,23.0,N/A,,Clear,180,2012-11-10 05:53:00